GW4807 Weather Reports


Display with metric or nautical units.
time (UTC)temp
F
wind
direction
speed
MPH
gust
MPH
rain 1hr
in
rain 24hr
in
rain mn
in
humidity
%
barometer
mb
20260503225729 80 163 0.0 1.0 0.00 0.00 0.00 33 1005.5
20260503225229 80 167 4.0 5.0 0.00 0.00 0.00 33 1005.4
20260503224726 80 175 3.0 3.0 0.00 0.00 0.00 35 1005.6
20260503224224 80 183 1.0 1.0 0.00 0.00 0.00 33 1005.7
20260503223721 80 197 3.0 3.0 0.00 0.00 0.00 34 1005.6
20260503223219 80 141 4.0 5.0 0.00 0.00 0.00 36 1005.8
20260503222715 80 175 2.0 3.0 0.00 0.00 0.00 36 1005.9
20260503222213 80 312 3.0 3.0 0.00 0.00 0.00 37 1005.9
20260503221711 80 297 3.0 3.0 0.00 0.00 0.00 36 1005.8
20260503221208 80 147 4.0 5.0 0.00 0.00 0.00 36 1005.8
20260503220705 80 164 4.0 6.0 0.00 0.00 0.00 35 1006.0
20260503220201 80 275 4.0 6.0 0.00 0.00 0.00 36 1006.0
20260503215658 80 207 5.0 7.0 0.00 0.00 0.00 34 1006.3
20260503215155 80 222 3.0 5.0 0.00 0.00 0.00 36 1006.2
20260503214654 80 226 2.0 3.0 0.00 0.00 0.00 37 1006.2
20260503214149 80 145 2.0 3.0 0.00 0.00 0.00 36 1006.2
20260503213643 80 346 2.0 3.0 0.00 0.00 0.00 36 1006.2
20260503213139 80 162 2.0 2.0 0.00 0.00 0.00 36 1006.2
20260503212637 80 288 3.0 3.0 0.00 0.00 0.00 38 1006.5
20260503212134 80 208 5.0 6.0 0.00 0.00 0.00 36 1006.6
20260503211632 80 179 5.0 7.0 0.00 0.00 0.00 35 1006.5
20260503211127 80 278 3.0 5.0 0.00 0.00 0.00 35 1006.9
20260503210623 79 243 1.0 2.0 0.00 0.00 0.00 38 1006.7
20260503210120 79 158 3.0 5.0 0.00 0.00 0.00 36 1006.8
20260503205616 79 180 3.0 6.0 0.00 0.00 0.00 37 1007.0
20260503205112 80 291 7.0 9.0 0.00 0.00 0.00 37 1007.1
20260503204609 79 285 5.0 8.0 0.00 0.00 0.00 37 1007.1
20260503204107 79 223 2.0 5.0 0.00 0.00 0.00 41 1007.2
20260503203604 79 296 5.0 7.0 0.00 0.00 0.00 41 1007.2
20260503203101 79 289 2.0 3.0 0.00 0.00 0.00 43 1007.5
20260503202558 78 156 2.0 3.0 0.00 0.00 0.00 40 1007.3
20260503202056 79 290 4.0 5.0 0.00 0.00 0.00 39 1007.4
20260503201554 79 196 6.0 9.0 0.00 0.00 0.00 42 1007.6
20260503201051 79 187 3.0 3.0 0.00 0.00 0.00 43 1007.6
20260503200547 78 109 2.0 2.0 0.00 0.00 0.00 42 1007.8
20260503200044 77 131 1.0 1.0 0.00 0.00 0.00 48 1007.9
20260503195541 77 94 1.0 1.0 0.00 0.00 0.00 42 1008.2
20260503195038 77 171 2.0 2.0 0.00 0.00 0.00 47 1008.1
20260503194535 76 287 3.0 3.0 0.00 0.00 0.00 40 1008.2
20260503194035 77 148 5.0 6.0 0.00 0.00 0.00 39 1008.2
20260503193532 76 181 4.0 5.0 0.00 0.00 0.00 40 1008.5
20260503193027 77 28 3.0 3.0 0.00 0.00 0.00 45 1008.6
20260503192523 76 138 1.0 2.0 0.00 0.00 0.00 48 1008.6
20260503192020 76 169 5.0 7.0 0.00 0.00 0.00 42 1008.7
20260503191516 76 223 5.0 7.0 0.00 0.00 0.00 45 1008.8
20260503191013 75 199 1.0 2.0 0.00 0.00 0.00 46 1008.9
20260503190510 75 284 4.0 6.0 0.00 0.00 0.00 51 1009.0
20260503190008 75 100 2.0 3.0 0.00 0.00 0.00 47 1009.0
20260503185504 75 282 7.0 8.0 0.00 0.00 0.00 45 1008.9
20260503185003 74 218 1.0 2.0 0.00 0.00 0.00 50 1009.0
20260503184500 73 322 3.0 3.0 0.00 0.00 0.00 46 1009.1
20260503183956 74 155 2.0 2.0 0.00 0.00 0.00 47 1009.2
20260503183453 74 157 3.0 3.0 0.00 0.00 0.00 48 1009.4
20260503182950 74 311 4.0 6.0 0.00 0.00 0.00 46 1009.5
20260503182449 73 178 5.0 8.0 0.00 0.00 0.00 47 1009.7
20260503181946 73 182 3.0 5.0 0.00 0.00 0.00 50 1009.9
20260503181443 73 182 3.0 5.0 0.00 0.00 0.00 48 1009.9
20260503180939 73 145 1.0 1.0 0.00 0.00 0.00 46 1009.8
20260503180437 73 67 3.0 3.0 0.00 0.00 0.00 49 1010.2
20260503175934 73 140 2.0 2.0 0.00 0.00 0.00 48 1010.2
20260503175432 72 317 2.0 3.0 0.00 0.00 0.00 48 1010.5
20260503174927 72 129 1.0 2.0 0.00 0.00 0.00 47 1010.6
20260503174426 71 147 2.0 2.0 0.00 0.00 0.00 51 1010.7
20260503173926 71 152 1.0 1.0 0.00 0.00 0.00 52 1010.6
20260503173422 70 40 3.0 3.0 0.00 0.00 0.00 47 1011.0
20260503172919 69 254 3.0 5.0 0.00 0.00 0.00 49 1010.9
20260503172417 69 283 3.0 3.0 0.00 0.00 0.00 50 1011.0
20260503171913 68 155 1.0 2.0 0.00 0.00 0.00 50 1011.0
20260503171410 68 73 1.0 1.0 0.00 0.00 0.00 53 1011.0
20260503170907 68 204 3.0 5.0 0.00 0.00 0.00 48 1011.2
20260503170403 67 233 4.0 6.0 0.00 0.00 0.00 51 1011.3
20260503150755 60 188 5.0 7.0 0.00 0.00 0.00 57 1012.8
20260503150251 60 149 1.0 1.0 0.00 0.00 0.00 58 1012.6
20260503140216 55 174 3.0 3.0 0.00 0.00 0.00 69 1012.7
20260503131145 48 153 0.0 1.0 0.00 0.00 0.00 93 1013.3
20260503130643 47 153 0.0 1.0 0.00 0.00 0.00 95 1013.3
20260503130140 46 117 0.0 1.0 0.00 0.00 0.00 94 1013.3
20260503110527 33 127 0.0 0.0 0.00 0.00 0.00 99 1012.7
20260503090415 34 129 0.0 0.0 0.00 0.00 0.00 99 1013.2
20260503081340 35 128 0.0 0.0 0.00 0.00 0.00 99 1013.4
20260503080837 35 129 0.0 0.0 0.00 0.00 0.00 99 1013.3
20260503080334 35 127 0.0 0.0 0.00 0.00 0.00 99 1013.3
20260503072805 35 128 0.0 0.0 0.00 0.00 0.00 99 1013.4
20260503072304 35 129 0.0 0.0 0.00 0.00 0.00 99 1013.8
20260503071757 35 129 0.0 0.0 0.00 0.00 0.00 99 1013.6
20260503071255 35 129 0.0 0.0 0.00 0.00 0.00 99 1013.8
20260503070751 35 129 0.0 0.0 0.00 0.00 0.00 99 1013.8
20260503070249 36 129 0.0 0.0 0.00 0.00 0.00 99 1013.6
20260503060208 38 132 0.0 0.0 0.00 0.00 0.00 99 1014.1
20260503054655 37 130 0.0 0.0 0.00 0.00 0.00 98 1014.0
20260503054152 37 131 0.0 0.0 0.00 0.00 0.00 98 1013.9
20260503053650 38 131 0.0 0.0 0.00 0.00 0.00 98 1013.9
20260503053149 38 131 0.0 0.0 0.00 0.00 0.00 98 1014.1
20260503052645 38 133 0.0 0.0 0.00 0.00 0.00 97 1014.0
20260503052141 39 131 0.0 0.0 0.00 0.00 0.00 97 1014.0
20260503051637 38 138 0.0 0.0 0.00 0.00 0.00 97 1013.9
20260503051135 38 131 0.0 0.0 0.00 0.00 0.00 97 1013.9
20260503050631 38 130 0.0 0.0 0.00 0.00 0.00 96 1013.8
20260503050128 39 130 0.0 0.0 0.00 0.00 0.00 96 1014.1
20260503045626 39 130 0.0 0.0 0.00 0.00 0.00 96 1013.8
20260503045123 39 130 0.0 0.0 0.00 0.00 0.00 96 1014.0
20260503044619 39 131 0.0 0.0 0.00 0.00 0.00 96 1013.9
20260503044116 39 131 0.0 0.0 0.00 0.00 0.00 96 1013.7
20260503043613 39 133 0.0 0.0 0.00 0.00 0.00 95 1014.0
20260503043110 40 131 0.0 0.0 0.00 0.00 0.00 95 1013.9
20260503042606 40 131 0.0 0.0 0.00 0.00 0.00 95 1013.8
20260503042102 40 139 0.0 0.0 0.00 0.00 0.00 95 1013.7
20260503041559 40 139 0.0 0.0 0.00 0.00 0.00 94 1013.8
20260503041057 40 133 0.0 0.0 0.00 0.00 0.00 94 1013.8
20260503040554 40 132 0.0 0.0 0.00 0.00 0.00 93 1013.8
20260503040051 41 133 0.0 0.0 0.00 0.00 0.00 93 1013.9
20260503035548 41 132 0.0 0.0 0.00 0.00 0.00 93 1013.7
20260503035046 41 135 0.0 0.0 0.00 0.00 0.00 92 1013.7
20260503034542 41 130 0.0 0.0 0.00 0.00 0.00 91 1013.8
20260503034040 41 130 0.0 0.0 0.00 0.00 0.00 90 1013.9
20260503033537 41 131 0.0 0.0 0.00 0.00 0.00 90 1013.9
20260503033035 42 132 0.0 0.0 0.00 0.00 0.00 90 1013.7
20260503032533 42 131 0.0 0.0 0.00 0.00 0.00 89 1013.8
20260503032030 42 131 0.0 0.0 0.00 0.00 0.00 89 1013.9
20260503031528 42 136 0.0 0.0 0.00 0.00 0.00 89 1013.7
20260503031025 42 133 0.0 0.0 0.00 0.00 0.00 88 1013.5
20260503030521 42 130 0.0 0.0 0.00 0.00 0.00 86 1013.6
20260503030019 43 131 0.0 0.0 0.00 0.00 0.00 86 1013.8
20260503025515 43 132 0.0 0.0 0.00 0.00 0.00 85 1013.7
20260503025013 43 131 0.0 0.0 0.00 0.00 0.00 84 1013.5
20260503024509 43 131 0.0 0.0 0.00 0.00 0.00 82 1013.7
20260503024006 44 131 0.0 0.0 0.00 0.00 0.00 81 1013.6
20260503023503 44 131 0.0 0.0 0.00 0.00 0.00 80 1013.6
20260503023000 44 131 0.0 0.0 0.00 0.00 0.00 79 1013.4
20260503022455 45 132 0.0 0.0 0.00 0.00 0.00 78 1013.4
20260503021951 45 132 0.0 0.0 0.00 0.00 0.00 77 1013.3
20260503021448 45 130 0.0 0.0 0.00 0.00 0.00 75 1013.2
20260503020946 46 130 0.0 0.0 0.00 0.00 0.00 74 1013.2
20260503020443 46 131 0.0 0.0 0.00 0.00 0.00 74 1013.2
20260503015939 47 132 0.0 0.0 0.00 0.00 0.00 74 1013.3
20260503015436 48 133 0.0 0.0 0.00 0.00 0.00 74 1013.2
20260503014932 48 135 0.0 0.0 0.00 0.00 0.00 74 1013.3
20260503014429 48 134 0.0 0.0 0.00 0.00 0.00 73 1013.1
20260503013928 49 135 0.0 0.0 0.00 0.00 0.00 73 1013.1
20260503013424 49 137 0.0 0.0 0.00 0.00 0.00 72 1013.2
20260503012921 49 137 0.0 0.0 0.00 0.00 0.00 72 1013.1
20260503012419 50 137 0.0 0.0 0.00 0.00 0.00 72 1013.0
20260503011915 50 139 0.0 0.0 0.00 0.00 0.00 69 1012.8
20260503011412 50 138 0.0 0.0 0.00 0.00 0.00 67 1013.0
20260503010909 51 135 0.0 0.0 0.00 0.00 0.00 66 1012.8
20260503010405 51 138 0.0 0.0 0.00 0.00 0.00 67 1012.8
20260503005902 52 137 0.0 0.0 0.00 0.00 0.00 66 1012.7
20260503005400 53 140 0.0 0.0 0.00 0.00 0.00 65 1012.7
20260503004855 53 143 0.0 0.0 0.00 0.00 0.00 65 1012.7
20260503004353 54 141 0.0 0.0 0.00 0.00 0.00 62 1012.6
20260503003851 55 144 0.0 0.0 0.00 0.00 0.00 60 1012.6
20260503003347 56 138 0.0 0.0 0.00 0.00 0.00 59 1012.7
20260503002844 56 151 1.0 1.0 0.00 0.00 0.00 56 1012.7
20260503002337 57 148 0.0 1.0 0.00 0.00 0.00 53 1012.5
20260503001833 59 152 1.0 1.0 0.00 0.00 0.00 50 1012.7
20260503001329 60 140 0.0 0.0 0.00 0.00 0.00 46 1012.5
20260503000827 60 139 0.0 0.0 0.00 0.00 0.00 44 1012.3
20260503000325 62 145 0.0 0.0 0.00 0.00 0.00 45 1012.4
20260502235820 63 141 0.0 0.0 0.00 0.00 0.00 44 1012.6
20260502235318 64 144 0.0 1.0 0.00 0.00 0.00 42 1012.7
20260502234814 65 148 0.0 1.0 0.00 0.00 0.00 38 1012.5
20260502234311 66 136 2.0 2.0 0.00 0.00 0.00 36 1012.6
20260502233807 65 145 0.0 0.0 0.00 0.00 0.00 39 1012.5
20260502233304 65 136 1.0 2.0 0.00 0.00 0.00 39 1012.7
20260502232800 66 144 0.0 0.0 0.00 0.00 0.00 40 1012.5
20260502232257 66 138 0.0 0.0 0.00 0.00 0.00 41 1012.6
20260502231754 65 142 0.0 0.0 0.00 0.00 0.00 39 1012.6
20260502231251 66 111 1.0 1.0 0.00 0.00 0.00 39 1012.6
20260502230750 66 175 2.0 3.0 0.00 0.00 0.00 38 1012.6
20260502230248 66 138 1.0 1.0 0.00 0.00 0.00 40 1012.7